User: anonymous   Login
Location: *
(46.1200°N, 11.2700°E)
Time: 15:37:18
(UTC+00:00)
Language:

Cosmos 2333 Rocket - Orbit

View from above orbital plane
View from above orbital plane
View from above satellite
View from above satellite

Ground track
Ground track

The orbit data is extracted from the following two-line orbital elements,

1 24298U 96051B   21131.89828023 -.00000196  00000-0 -79487-4 0  9991
2 24298  70.8291 298.0436 0018128 229.3292 130.6253 14.12447938272997
Epoch (UTC): 11 May 2021 21:33:31
Eccentricity: 0.0018128
inclination: 70.8291°
perigee height: 838 km
apogee height: 864 km
right ascension of ascending node: 298.0436°
argument of perigee: 229.3292°
revolutions per day: 14.12447938
mean anomaly at epoch: 130.6253°
orbit number at epoch: 27299

The dashed part of the orbit path shows where the satellite is in the earth's shadow,  

DLR